QPF
0.00 0.00 0.00 0.00 0.00 0.00 0.00 0.00 0.00 0.01 0.05 0.06 0.06 0.03 0.14 0.28 0.29 0.37 0.28 0.13 0.03 0.03 0.03 0.09 0.12 0.11 0.10 0.12 0.14 0.18 0.09 0.06 0.02 0.02 0.01 0.00 0.00 0.00 0.00 0.00 0.00 0.00 0.00 0.00 0.00 0.00 0.00 0.00 0.00 0.00 0.00 0.00 0.00 0.00
0.00 0.00 0.00 0.00 0.00 0.00 0.00 0.00 0.00 0.01 0.06 0.07 0.09 0.03 0.08 0.26 0.28 0.46 0.27 0.14 0.05 0.05 0.04 0.06 0.18 0.22 0.29 0.12 0.06 0.06 0.05 0.05 0.01 0.00 0.00 0.00 0.00 0.00 0.00 0.00 0.00 0.00 0.00 0.00 0.00 0.00 0.00 0.00 0.00 0.00 0.00 0.00 0.00 0.00
0.00 0.00 0.00 0.00 0.00 0.00 0.00 0.00 0.00 0.01 0.05 0.04 0.04 0.01 0.06 0.18 0.27 0.33 0.23 0.16 0.12 0.16 0.06 0.06 0.11 0.20 0.21 0.28 0.24 0.07 0.10 0.04 0.01 0.00 0.00 0.00 0.00 0.00 0.00 0.00 0.00 0.00 0.00 0.00 0.00 0.00 0.00 0.00 0.00 0.00 0.00 0.00 0.00 0.00
0.00 0.01 0.01 0.00 0.00 0.00 0.00 0.00 0.00 0.02 0.03 0.03 0.03 0.01 0.02 0.10 0.22 0.33 0.22 0.06 0.04 0.10 0.08 0.07 0.06 0.06 0.14 0.10 0.21 0.14 0.06 0.03 0.03 0.03 0.03 0.01 0.00 0.00 0.00 0.00 0.00 0.00 0.00 0.00 0.00 0.00 0.00 0.00 0.00 0.00 0.00 0.00 0.00 0.00
0.00 0.01 0.01 0.00 0.00 0.00 0.00 0.00 0.00 0.01 0.05 0.03 0.02 0.01 0.00 0.05 0.17 0.25 0.23 0.12 0.01 0.03 0.09 0.07 0.06 0.04 0.06 0.06 0.05 0.10 0.04 0.03 0.03 0.04 0.03 0.01 0.00 0.00 0.00 0.00 0.00 0.00 0.00 0.00 0.00 0.00 0.00 0.00 0.00 0.00 0.00 0.00 0.00 0.00
0.00 0.01 0.01 0.01 0.00 0.00 0.00 0.00 0.00 0.00 0.03 0.04 0.02 0.01 0.00 0.03 0.16 0.35 0.29 0.37 0.10 0.00 0.06 0.13 0.17 0.14 0.08 0.10 0.08 0.06 0.06 0.03 0.02 0.01 0.01 0.00 0.00 0.00 0.00 0.00 0.00 0.00 0.00 0.00 0.00 0.00 0.00 0.00 0.00 0.00 0.00 0.00 0.00 0.00
0.01 0.01 0.01 0.01 0.01 0.01 0.00 0.00 0.00 0.00 0.02 0.03 0.02 0.01 0.02 0.05 0.19 0.49 0.42 0.31 0.32 0.02 0.01 0.12 0.21 0.21 0.15 0.13 0.17 0.12 0.11 0.04 0.03 0.03 0.02 0.01 0.00 0.00 0.00 0.00 0.00 0.00 0.00 0.00 0.00 0.00 0.00 0.00 0.00 0.00 0.00 0.00 0.00 0.00
0.00 0.00 0.01 0.00 0.01 0.01 0.01 0.00 0.01 0.01 0.01 0.00 0.01 0.03 0.05 0.11 0.25 0.42 0.32 0.09 0.10 0.10 0.03 0.03 0.18 0.27 0.27 0.17 0.14 0.15 0.12 0.09 0.07 0.06 0.01 0.00 0.00 0.00 0.00 0.00 0.00 0.00 0.00 0.00 0.00 0.00 0.00 0.00 0.00 0.00 0.00 0.00 0.00 0.00
0.00 0.00 0.00 0.01 0.01 0.02 0.01 0.01 0.03 0.01 0.00 0.01 0.03 0.07 0.11 0.16 0.33 0.37 0.42 0.23 0.05 0.12 0.08 0.03 0.04 0.12 0.10 0.07 0.02 0.02 0.04 0.04 0.03 0.03 0.01 0.00 0.00 0.00 0.00 0.00 0.00 0.00 0.00 0.00 0.00 0.00 0.00 0.00 0.00 0.00 0.00 0.00 0.00 0.00
0.00 0.00 0.00 0.01 0.01 0.02 0.02 0.02 0.03 0.01 0.01 0.03 0.05 0.08 0.13 0.11 0.10 0.21 0.48 0.41 0.21 0.13 0.06 0.01 0.00 0.00 0.01 0.01 0.01 0.01 0.00 0.00 0.00 0.00 0.00 0.00 0.00 0.00 0.00 0.00 0.00 0.00 0.00 0.00 0.00 0.00 0.00 0.00 0.00 0.00 0.00 0.00 0.00 0.00
0.01 0.01 0.01 0.01 0.01 0.01 0.02 0.03 0.04 0.03 0.07 0.07 0.03 0.04 0.09 0.17 0.11 0.34 0.53 0.49 0.37 0.21 0.06 0.01 0.00 0.00 0.00 0.00 0.00 0.00 0.00 0.00 0.00 0.00 0.00 0.00 0.00 0.00 0.00 0.00 0.00 0.00 0.00 0.00 0.00 0.00 0.00 0.00 0.00 0.00 0.00 0.00 0.00 0.00
0.02 0.03 0.02 0.01 0.01 0.01 0.03 0.04 0.03 0.02 0.03 0.02 0.00 0.06 0.26 0.27 0.35 0.50 0.41 0.34 0.20 0.11 0.03 0.00 0.00 0.00 0.00 0.00 0.00 0.00 0.00 0.00 0.00 0.00 0.00 0.00 0.00 0.00 0.00 0.00 0.00 0.00 0.00 0.00 0.00 0.00 0.00 0.00 0.00 0.00 0.00 0.00 0.00 0.00
0.01 0.02 0.02 0.02 0.01 0.01 0.02 0.03 0.01 0.02 0.00 0.02 0.03 0.22 0.32 0.33 0.33 0.27 0.24 0.19 0.08 0.00 0.00 0.00 0.00 0.00 0.00 0.00 0.00 0.00 0.00 0.00 0.00 0.00 0.00 0.00 0.00 0.00 0.00 0.00 0.00 0.00 0.00 0.00 0.00 0.00 0.00 0.00 0.00 0.00 0.00 0.00 0.00 0.00
0.01 0.02 0.02 0.02 0.01 0.01 0.01 0.01 0.01 0.01 0.03 0.06 0.08 0.21 0.22 0.20 0.11 0.04 0.02 0.01 0.00 0.00 0.00 0.00 0.00 0.00 0.00 0.00 0.00 0.00 0.00 0.00 0.00 0.00 0.00 0.00 0.00 0.00 0.00 0.00 0.00 0.00 0.00 0.00 0.00 0.00 0.00 0.00 0.00 0.00 0.00 0.00 0.00 0.00
0.02 0.02 0.02 0.02 0.01 0.01 0.01 0.01 0.00 0.03 0.07 0.08 0.09 0.10 0.09 0.06 0.00 0.00 0.00 0.00 0.00 0.00 0.00 0.00 0.00 0.00 0.00 0.00 0.00 0.00 0.00 0.00 0.00 0.00 0.00 0.00 0.00 0.00 0.00 0.00 0.00 0.00 0.00 0.00 0.00 0.00 0.00 0.00 0.00 0.00 0.00 0.00 0.00 0.00
0.02 0.05 0.05 0.02 0.01 0.02 0.02 0.02 0.02 0.12 0.10 0.03 0.08 0.11 0.02 0.01 0.00 0.00 0.00 0.00 0.00 0.00 0.00 0.00 0.00 0.00 0.00 0.00 0.00 0.00 0.00 0.00 0.00 0.00 0.00 0.00 0.00 0.00 0.00 0.00 0.00 0.00 0.00 0.00 0.00 0.00 0.00 0.00 0.00 0.00 0.00 0.00 0.00 0.00
0.08 0.18 0.11 0.04 0.03 0.03 0.02 0.07 0.13 0.19 0.11 0.04 0.06 0.04 0.01 0.00 0.00 0.00 0.00 0.00 0.00 0.00 0.00 0.00 0.00 0.00 0.00 0.00 0.00 0.00 0.00 0.00 0.00 0.00 0.00 0.00 0.00 0.00 0.00 0.00 0.00 0.00 0.00 0.00 0.00 0.00 0.00 0.00 0.00 0.00 0.00 0.00 0.00 0.00
0.11 0.08 0.06 0.10 0.08 0.06 0.10 0.10 0.09 0.09 0.04 0.03 0.11 0.02 0.01 0.00 0.00 0.00 0.00 0.00 0.00 0.00 0.00 0.00 0.00 0.00 0.00 0.00 0.00 0.00 0.00 0.00 0.00 0.00 0.00 0.00 0.00 0.00 0.00 0.00 0.00 0.00 0.00 0.00 0.00 0.00 0.00 0.00 0.00 0.00 0.00 0.00 0.00 0.00
0.05 0.07 0.18 0.16 0.13 0.21 0.24 0.15 0.02 0.00 0.01 0.01 0.02 0.02 0.00 0.00 0.01 0.00 0.00 0.00 0.00 0.00 0.00 0.00 0.00 0.00 0.00 0.00 0.00 0.00 0.00 0.00 0.00 0.00 0.00 0.00 0.00 0.00 0.00 0.00 0.00 0.00 0.00 0.00 0.00 0.00 0.00 0.00 0.00 0.00 0.00 0.00 0.00 0.00
0.19 0.29 0.33 0.16 0.08 0.04 0.06 0.05 0.01 0.01 0.02 0.02 0.01 0.01 0.03 0.01 0.01 0.01 0.01 0.00 0.00 0.00 0.00 0.00 0.00 0.00 0.00 0.00 0.00 0.00 0.00 0.00 0.00 0.00 0.00 0.00 0.00 0.00 0.00 0.00 0.00 0.00 0.00 0.00 0.00 0.00 0.00 0.00 0.00 0.00 0.00 0.00 0.00 0.00
0.39 0.32 0.16 0.07 0.06 0.02 0.01 0.02 0.03 0.01 0.03 0.05 0.03 0.04 0.11 0.05 0.01 0.00 0.00 0.00 0.00 0.00 0.00 0.00 0.00 0.00 0.00 0.00 0.00 0.00 0.00 0.00 0.00 0.00 0.00 0.00 0.00 0.00 0.00 0.00 0.00 0.00 0.00 0.00 0.00 0.00 0.00 0.00 0.00 0.00 0.00 0.00 0.00 0.00
0.31 0.13 0.10 0.07 0.02 0.00 0.00 0.01 0.01 0.01 0.01 0.03 0.04 0.05 0.07 0.07 0.06 0.02 0.00 0.00 0.00 0.00 0.00 0.00 0.00 0.00 0.00 0.00 0.00 0.00 0.00 0.00 0.00 0.00 0.00 0.00 0.00 0.00 0.00 0.00 0.00 0.00 0.00 0.00 0.00 0.00 0.00 0.00 0.00 0.00 0.00 0.00 0.00 0.00
0.13 0.10 0.07 0.02 0.00 0.01 0.06 0.03 0.02 0.00 0.04 0.07 0.03 0.02 0.03 0.03 0.02 0.00 0.00 0.00 0.00 0.00 0.00 0.00 0.00 0.00 0.00 0.00 0.00 0.00 0.00 0.00 0.00 0.00 0.00 0.00 0.00 0.00 0.00 0.00 0.00 0.00 0.00 0.00 0.00 0.00 0.00 0.00 0.00 0.00 0.00 0.00 0.00 0.00
0.04 0.04 0.05 0.06 0.02 0.04 0.05 0.03 0.02 0.01 0.01 0.01 0.01 0.01 0.01 0.01 0.01 0.00 0.00 0.00 0.00 0.00 0.00 0.00 0.00 0.00 0.00 0.00 0.00 0.00 0.00 0.00 0.00 0.00 0.00 0.00 0.00 0.00 0.00 0.00 0.00 0.00 0.00 0.00 0.00 0.00 0.00 0.00 0.00 0.00 0.00 0.00 0.00 0.00
0.05 0.04 0.03 0.04 0.01 0.01 0.02 0.02 0.00 0.00 0.00 0.00 0.00 0.00 0.00 0.00 0.00 0.00 0.00 0.00 0.00 0.00 0.00 0.00 0.00 0.00 0.00 0.00 0.00 0.00 0.00 0.00 0.00 0.00 0.00 0.00 0.00 0.00 0.00 0.00 0.00 0.00 0.00 0.00 0.00 0.00 0.00 0.00 0.00 0.00 0.00 0.00 0.00 0.00
0.03 0.02 0.02 0.02 0.01 0.00 0.01 0.01 0.00 0.00 0.00 0.00 0.00 0.00 0.00 0.00 0.00 0.00 0.00 0.00 0.00 0.00 0.00 0.00 0.00 0.00 0.00 0.00 0.00 0.00 0.00 0.00 0.00 0.00 0.00 0.00 0.00 0.00 0.00 0.00 0.00 0.00 0.00 0.00 0.00 0.00 0.00 0.00 0.00 0.00 0.00 0.00 0.01 0.00
0.01 0.00 0.00 0.00 0.00 0.00 0.00 0.00 0.00 0.00 0.00 0.00 0.00 0.00 0.00 0.00 0.00 0.00 0.00 0.00 0.00 0.00 0.00 0.00 0.00 0.00 0.00 0.00 0.00 0.00 0.00 0.00 0.00 0.00 0.00 0.00 0.00 0.00 0.00 0.00 0.00 0.00 0.00 0.00 0.00 0.00 0.00 0.00 0.00 0.00 0.00 0.00 0.00 0.00
0.00 0.00 0.00 0.00 0.00 0.00 0.00 0.00 0.00 0.00 0.00 0.00 0.00 0.00 0.00 0.00 0.00 0.00 0.00 0.00 0.00 0.00 0.00 0.00 0.00 0.00 0.00 0.00 0.00 0.00 0.00 0.00 0.00 0.00 0.00 0.00 0.00 0.00 0.00 0.00 0.00 0.00 0.00 0.00 0.00 0.00 0.00 0.00 0.00 0.00 0.00 0.00 0.00 0.00
0.00 0.00 0.00 0.00 0.00 0.00 0.00 0.00 0.00 0.00 0.00 0.00 0.00 0.00 0.00 0.00 0.00 0.00 0.00 0.00 0.00 0.00 0.00 0.00 0.00 0.00 0.00 0.00 0.00 0.00 0.00 0.00 0.00 0.00 0.00 0.00 0.00 0.00 0.00 0.00 0.00 0.00 0.00 0.00 0.00 0.00 0.00 0.00 0.00 0.00 0.00 0.00 0.00 0.00
0.00 0.00 0.00 0.00 0.00 0.00 0.00 0.00 0.00 0.00 0.00 0.00 0.00 0.00 0.00 0.00 0.00 0.00 0.00 0.00 0.00 0.00 0.00 0.00 0.00 0.00 0.00 0.00 0.00 0.00 0.00 0.00 0.00 0.00 0.00 0.00 0.00 0.00 0.00 0.00 0.00 0.00 0.00 0.00 0.00 0.00 0.00 0.00 0.00 0.00 0.00 0.00 0.00 0.00
0.00 0.00 0.00 0.00 0.00 0.00 0.00 0.00 0.00 0.00 0.00 0.00 0.00 0.00 0.00 0.00 0.00 0.00 0.00 0.00 0.00 0.00 0.00 0.00 0.00 0.00 0.00 0.00 0.00 0.00 0.00 0.00 0.00 0.00 0.00 0.00 0.00 0.00 0.00 0.00 0.00 0.00 0.00 0.00 0.00 0.00 0.00 0.00 0.00 0.00 0.00 0.00 0.00 0.00
0.00 0.00 0.00 0.00 0.00 0.00 0.00 0.00 0.00 0.00 0.00 0.00 0.00 0.00 0.00 0.00 0.00 0.00 0.00 0.00 0.00 0.00 0.00 0.00 0.00 0.00 0.00 0.00 0.00 0.00 0.00 0.00 0.00 0.00 0.00 0.00 0.00 0.00 0.00 0.00 0.00 0.00 0.00 0.00 0.00 0.00 0.00 0.00 0.00 0.00 0.01 0.01 0.01 0.01
0.00 0.00 0.00 0.00 0.00 0.00 0.00 0.00 0.00 0.00 0.00 0.00 0.00 0.00 0.00 0.00 0.00 0.00 0.00 0.00 0.00 0.00 0.00 0.00 0.00 0.00 0.00 0.00 0.00 0.00 0.00 0.00 0.00 0.00 0.00 0.00 0.00 0.00 0.00 0.00 0.00 0.00 0.00 0.00 0.00 0.00 0.00 0.01 0.02 0.03 0.03 0.03 0.03 0.03
MSLP
1005.87 1005.89 1005.98 1006.09 1006.12 1006.03 1005.88 1005.77 1005.55 1005.40 1005.43 1005.15 1005.14 1004.39 1004.51 1004.82 1005.33 1005.47 1004.86 1003.20 1003.15 1003.95 1004.55 1005.25 1005.10 1005.13 1006.03 1006.69 1007.44 1008.20 1009.41 1009.66 1009.56 1009.64 1009.59 1008.75 1007.77 1007.45 1007.63 1007.82 1008.99 1009.69 1010.35 1010.82 1011.26 1011.03 1010.07 1008.67 1008.53 1008.81 1008.84 1008.81 1009.06 1009.33
1005.31 1005.35 1005.40 1005.51 1005.60 1005.54 1005.45 1005.32 1005.37 1004.98 1004.73 1005.23 1004.92 1004.71 1004.50 1003.78 1004.28 1005.41 1004.45 1003.90 1003.86 1004.39 1006.45 1006.03 1006.35 1007.13 1007.02 1006.68 1007.14 1007.71 1008.06 1008.04 1008.00 1008.02 1007.73 1007.58 1007.17 1006.53 1006.66 1007.09 1007.88 1009.10 1008.97 1009.31 1009.53 1009.04 1008.60 1008.04 1007.97 1008.53 1008.83 1009.16 1009.31 1009.56
1004.73 1004.78 1004.81 1004.85 1005.04 1005.05 1004.97 1004.92 1004.99 1005.15 1004.82 1004.69 1005.06 1004.97 1005.03 1004.89 1005.25 1005.53 1004.42 1003.63 1003.62 1005.46 1006.52 1007.16 1007.65 1007.23 1006.79 1007.16 1007.21 1007.49 1007.89 1007.35 1006.90 1006.28 1006.82 1006.97 1006.84 1006.10 1006.25 1006.30 1006.65 1007.45 1008.05 1008.16 1008.50 1007.98 1007.72 1007.82 1007.87 1008.42 1008.86 1009.25 1009.43 1009.70
1004.11 1004.15 1004.18 1004.22 1004.36 1004.50 1004.43 1004.41 1004.39 1004.45 1004.49 1004.87 1004.87 1004.94 1005.13 1004.85 1004.68 1004.38 1004.21 1002.76 1003.19 1004.99 1006.51 1007.56 1007.62 1007.80 1007.19 1007.40 1007.58 1006.96 1007.16 1007.58 1006.95 1007.05 1007.79 1007.38 1006.68 1006.18 1006.15 1006.31 1006.25 1006.37 1006.97 1007.39 1007.55 1007.64 1007.73 1007.96 1008.17 1008.52 1008.86 1009.20 1009.39 1009.53
1003.51 1003.55 1003.55 1003.61 1003.73 1003.87 1003.93 1003.85 1003.79 1003.79 1003.95 1004.11 1004.28 1004.49 1004.61 1004.42 1004.38 1004.00 1003.14 1002.52 1002.28 1003.34 1006.15 1007.33 1007.14 1007.58 1007.43 1007.19 1007.01 1007.27 1007.02 1007.38 1007.45 1007.74 1007.61 1007.12 1006.48 1006.70 1006.46 1006.51 1006.18 1005.83 1006.11 1006.55 1006.65 1007.29 1007.56 1007.80 1008.10 1008.56 1008.90 1009.13 1009.20 1009.39
1002.90 1002.98 1003.00 1003.05 1003.22 1003.33 1003.44 1003.45 1003.50 1003.57 1003.58 1003.43 1003.58 1004.05 1003.98 1003.90 1003.47 1003.75 1002.94 1002.39 1002.53 1002.55 1004.93 1007.35 1008.42 1008.45 1007.63 1007.43 1007.06 1007.75 1007.44 1007.69 1007.27 1007.06 1007.23 1006.88 1006.97 1006.95 1006.87 1006.52 1006.19 1005.99 1005.79 1005.96 1006.36 1007.03 1007.44 1007.78 1008.06 1008.41 1008.68 1009.11 1009.36 1009.56
1002.25 1002.41 1002.49 1002.61 1002.71 1002.80 1002.92 1003.17 1003.17 1003.06 1003.12 1003.63 1003.94 1003.96 1004.25 1004.13 1003.92 1003.77 1003.63 1003.46 1002.55 1002.52 1004.69 1007.77 1008.66 1008.47 1007.98 1007.82 1008.18 1008.34 1008.46 1008.32 1008.42 1008.38 1007.96 1007.51 1007.72 1007.73 1007.42 1006.48 1006.13 1005.81 1005.96 1006.03 1006.24 1006.78 1007.30 1007.75 1008.17 1008.33 1008.73 1009.18 1009.47 1009.54
1001.64 1001.85 1002.01 1002.16 1002.31 1002.43 1002.53 1002.75 1003.04 1003.15 1003.03 1003.47 1003.80 1004.04 1004.15 1004.14 1003.61 1003.41 1003.03 1002.84 1002.62 1003.43 1004.52 1006.70 1008.34 1008.69 1008.22 1008.22 1008.79 1008.98 1008.95 1009.27 1009.25 1009.02 1008.68 1008.62 1008.83 1008.71 1007.74 1006.76 1006.40 1005.93 1006.03 1006.14 1006.39 1006.92 1007.55 1008.09 1008.28 1008.46 1008.81 1009.26 1009.56 1009.58
1000.94 1001.22 1001.50 1001.68 1001.89 1002.11 1002.32 1002.55 1002.74 1003.00 1003.28 1003.66 1003.50 1003.55 1003.74 1003.65 1003.58 1003.32 1003.42 1003.51 1002.72 1003.39 1004.11 1005.38 1006.57 1007.71 1008.37 1008.47 1008.94 1009.28 1009.22 1009.44 1009.69 1009.47 1009.22 1008.87 1009.04 1008.18 1006.88 1006.35 1005.96 1006.01 1006.10 1006.49 1006.75 1007.11 1007.47 1007.94 1008.36 1008.69 1009.08 1009.48 1009.78 1010.01
1000.08 1000.45 1000.76 1001.12 1001.42 1001.73 1002.02 1002.39 1002.81 1003.18 1003.58 1003.87 1004.24 1004.52 1004.54 1004.21 1003.75 1004.19 1004.70 1004.14 1003.07 1003.60 1003.30 1003.33 1004.37 1005.66 1006.32 1006.94 1008.15 1008.74 1008.84 1009.40 1009.56 1009.66 1009.09 1009.15 1007.76 1006.95 1006.46 1005.96 1005.96 1005.90 1006.10 1006.48 1006.97 1007.09 1007.26 1007.91 1008.56 1009.20 1009.66 1010.06 1010.40 1010.68
999.10 999.48 999.99 1000.45 1000.83 1001.22 1001.62 1002.07 1002.56 1003.17 1003.73 1004.05 1004.26 1004.18 1004.32 1004.34 1004.16 1004.19 1003.76 1003.49 1003.43 1003.14 1002.30 1002.07 1002.80 1003.54 1005.49 1006.12 1007.26 1008.20 1008.92 1009.67 1009.64 1009.54 1009.37 1008.47 1006.29 1005.77 1005.84 1005.59 1005.91 1006.25 1006.52 1006.82 1007.13 1007.48 1007.79 1008.41 1009.15 1009.74 1010.00 1010.29 1010.65 1010.98
997.90 998.39 998.94 999.50 1000.13 1000.70 1001.21 1001.75 1002.22 1002.73 1003.23 1003.70 1003.95 1004.47 1004.85 1004.64 1003.93 1003.57 1002.88 1002.88 1002.05 1001.04 1000.40 1000.50 1002.12 1002.94 1004.51 1005.62 1007.19 1008.19 1008.76 1009.41 1009.07 1009.11 1009.17 1007.20 1004.41 1004.33 1004.61 1004.92 1005.47 1006.17 1006.69 1006.72 1007.08 1007.62 1008.25 1008.94 1009.35 1009.83 1010.33 1010.59 1010.84 1011.25
996.55 997.07 997.70 998.35 999.11 1000.01 1000.63 1001.27 1001.83 1002.35 1003.22 1003.66 1003.69 1004.32 1004.37 1003.82 1002.73 1001.74 1000.86 1000.49 999.36 998.58 999.15 999.56 1001.50 1002.95 1004.81 1005.77 1007.16 1007.61 1008.65 1009.38 1009.48 1009.59 1008.07 1005.14 1003.88 1003.82 1003.81 1004.50 1005.40 1006.26 1006.89 1007.16 1007.34 1007.78 1008.48 1009.08 1009.70 1010.29 1010.65 1010.90 1011.17 1011.59
994.30 994.87 995.82 996.75 997.80 999.00 1000.01 1000.91 1001.79 1002.42 1002.88 1003.18 1003.07 1003.32 1003.18 1001.91 1000.68 999.14 997.77 996.82 996.24 996.77 997.81 999.43 1000.79 1002.43 1003.87 1005.27 1006.33 1007.02 1008.17 1009.04 1008.51 1007.31 1004.91 1004.10 1003.47 1003.54 1003.99 1004.60 1005.61 1006.40 1007.04 1007.12 1007.40 1008.01 1008.88 1009.59 1010.03 1010.41 1010.88 1011.46 1011.77 1012.19
993.48 994.13 994.98 996.20 997.24 998.52 999.68 1000.83 1001.62 1002.18 1002.59 1002.63 1002.41 1002.16 1001.38 1000.38 999.07 997.75 996.55 995.92 996.18 997.02 998.18 999.61 1001.05 1002.36 1003.99 1005.22 1005.57 1006.32 1007.04 1006.59 1005.15 1003.17 1002.91 1003.26 1003.14 1003.52 1004.03 1004.67 1005.60 1006.20 1006.43 1006.77 1007.58 1008.41 1009.43 1010.17 1010.57 1010.77 1011.21 1011.47 1011.57 1012.27
993.55 994.38 995.12 995.96 997.18 998.50 999.75 1001.05 1001.94 1002.39 1002.25 1001.80 1001.68 1001.19 1000.13 999.22 998.13 997.01 995.69 995.37 996.33 997.22 998.05 998.90 1000.96 1002.82 1003.47 1003.53 1003.95 1004.24 1004.19 1002.97 1002.09 1002.20 1002.14 1002.37 1002.83 1003.28 1003.98 1005.00 1005.60 1005.63 1005.97 1006.55 1007.57 1008.35 1009.16 1009.94 1010.44 1010.52 1010.56 1010.83 1011.74 1012.17
993.68 994.11 994.81 996.02 997.35 998.76 1000.13 1001.01 1001.81 1002.17 1001.82 1001.24 1000.52 1000.47 1000.05 999.13 998.08 996.61 995.47 995.54 996.23 996.30 997.24 998.79 1000.17 1001.20 1001.72 1002.13 1002.24 1002.04 1001.57 1001.07 1001.21 1001.36 1001.69 1002.29 1002.83 1003.51 1004.04 1004.72 1005.28 1005.33 1005.85 1006.60 1007.34 1008.02 1008.59 1009.16 1009.56 1009.85 1010.15 1010.44 1010.71 1011.29
992.69 993.76 994.50 995.84 997.46 999.19 999.91 1000.88 1001.26 1001.28 1000.74 1000.04 999.76 999.41 999.85 999.29 998.13 996.69 995.87 996.03 996.10 996.74 997.81 998.72 999.23 999.99 1000.19 1000.23 1000.06 1000.28 1000.58 1001.08 1001.41 1001.68 1001.97 1002.36 1002.81 1003.28 1004.00 1004.78 1005.43 1005.94 1006.53 1007.06 1007.50 1007.98 1008.52 1009.00 1009.31 1009.46 1009.64 1009.88 1010.27 1010.71
990.87 992.55 994.12 995.41 996.53 998.08 999.37 1000.31 999.97 999.93 999.84 999.28 998.93 999.31 998.81 998.31 997.74 996.94 996.71 996.79 997.45 997.95 998.85 999.13 999.35 999.27 999.21 998.84 999.18 1000.05 1000.68 1000.96 1001.22 1001.66 1002.16 1002.60 1003.01 1003.55 1004.08 1004.67 1005.25 1006.00 1006.50 1006.93 1007.51 1007.99 1008.31 1008.49 1008.69 1008.96 1009.28 1009.63 1009.94 1010.40
988.08 990.30 993.02 995.13 996.54 996.98 998.32 998.70 998.84 998.86 999.37 999.58 999.31 999.42 999.55 998.42 997.74 997.90 998.26 998.37 998.67 999.19 999.47 999.78 999.47 999.19 999.36 999.33 999.56 1000.02 1000.40 1000.77 1001.36 1002.05 1002.58 1003.03 1003.55 1003.97 1004.50 1005.36 1005.98 1006.40 1006.65 1006.99 1007.41 1007.80 1008.19 1008.49 1008.64 1008.68 1008.98 1009.36 1009.60 1009.95
986.96 989.98 993.04 995.28 995.91 996.10 996.87 997.49 998.12 998.82 999.22 999.43 999.59 999.58 1000.00 999.22 998.84 999.04 999.25 999.11 999.62 1000.04 1000.22 1000.10 999.87 1000.21 1000.00 999.94 1000.03 1000.37 1000.87 1001.34 1001.93 1002.51 1003.06 1003.83 1004.52 1004.73 1005.13 1005.48 1005.95 1006.38 1006.77 1007.15 1007.56 1007.80 1008.00 1008.06 1008.16 1008.31 1008.61 1009.18 1009.49 1009.96
989.71 992.06 993.78 995.21 995.29 995.59 996.58 996.97 997.56 998.19 998.39 998.81 999.31 999.94 1000.09 999.90 999.97 1000.12 999.98 999.87 1000.09 1000.27 1000.19 1000.33 1000.55 1000.47 1000.53 1000.78 1001.00 1001.41 1001.81 1002.13 1002.65 1003.44 1003.72 1004.16 1004.71 1005.16 1005.54 1005.91 1006.25 1006.55 1006.89 1007.26 1007.46 1007.53 1007.66 1007.76 1007.81 1007.90 1008.38 1009.33 1009.66 1009.92
992.71 994.17 994.50 994.43 995.06 996.12 997.58 997.56 997.58 997.92 998.61 999.33 999.88 1000.01 1000.06 1000.22 1000.47 1000.28 1000.48 1000.18 1000.42 1000.37 1000.29 1000.40 1000.51 1000.98 1001.43 1001.63 1001.81 1002.14 1002.54 1002.85 1003.18 1003.65 1004.15 1004.48 1004.86 1005.28 1005.67 1005.99 1006.23 1006.39 1006.64 1006.70 1006.84 1007.05 1007.18 1007.21 1007.40 1008.13 1008.50 1009.23 1009.83 1010.20
992.06 992.97 993.92 994.82 995.46 996.64 997.22 997.43 997.70 998.11 998.61 999.10 999.40 999.76 1000.04 1000.36 1000.58 1000.14 1000.01 1000.04 1000.22 1000.58 1000.81 1000.91 1001.10 1001.42 1001.70 1001.89 1002.25 1002.60 1002.92 1003.20 1003.51 1003.85 1004.24 1004.62 1004.86 1005.07 1005.28 1005.53 1005.68 1005.79 1005.98 1006.14 1006.49 1006.75 1006.83 1007.23 1007.54 1008.03 1008.60 1009.21 1009.58 1009.96
993.39 995.39 995.27 995.59 995.82 996.46 997.33 997.92 997.90 997.94 998.39 998.67 999.13 999.72 1000.02 999.91 999.84 1000.00 999.63 999.69 1000.07 1000.41 1000.62 1000.86 1001.26 1001.58 1001.79 1002.06 1002.33 1002.56 1002.76 1003.04 1003.41 1003.74 1003.96 1004.27 1004.63 1004.88 1004.96 1005.15 1005.33 1005.38 1005.53 1005.92 1006.13 1006.51 1007.01 1007.43 1007.81 1008.36 1008.70 1009.02 1009.36 1009.62
995.30 995.91 995.65 995.46 995.91 996.31 997.19 997.69 997.85 997.84 998.07 998.51 999.54 1000.01 999.61 999.70 999.70 999.71 999.70 999.81 1000.13 1000.60 1000.95 1001.26 1001.46 1001.70 1001.91 1002.08 1002.32 1002.56 1002.86 1003.05 1003.56 1004.00 1004.05 1004.19 1004.46 1004.65 1004.96 1005.27 1005.35 1005.22 1005.37 1005.53 1006.18 1006.49 1006.89 1007.16 1007.58 1007.98 1008.24 1008.55 1008.87 1009.31
995.02 995.36 994.94 994.07 994.34 995.21 996.68 997.35 997.53 997.79 998.35 998.96 999.63 999.86 999.84 999.83 1000.12 1000.09 1000.23 1000.34 1000.73 1001.09 1001.36 1001.63 1001.68 1001.74 1002.09 1002.53 1002.92 1003.37 1003.70 1004.05 1004.37 1004.80 1004.84 1004.71 1004.77 1004.82 1005.02 1005.25 1005.29 1005.40 1005.32 1005.72 1005.93 1006.25 1006.65 1006.88 1007.09 1007.37 1007.69 1007.98 1008.18 1008.62
994.25 994.63 994.66 995.08 995.43 996.17 996.91 997.63 998.04 998.19 998.20 998.64 999.19 999.72 1000.01 1000.01 1000.11 1000.38 1000.91 1001.35 1001.60 1001.94 1002.42 1002.72 1002.90 1003.00 1003.24 1003.56 1003.95 1004.46 1005.01 1005.27 1005.44 1005.34 1005.33 1005.35 1005.33 1005.30 1005.49 1005.46 1005.53 1005.85 1006.00 1006.13 1006.21 1006.31 1006.41 1006.48 1006.61 1006.84 1007.17 1007.46 1007.82 1008.19
995.56 995.80 996.14 996.67 996.88 997.38 997.82 998.06 997.82 997.60 997.63 998.21 998.87 999.34 999.82 1000.69 1001.39 1001.54 1001.79 1001.88 1002.03 1002.34 1002.77 1003.33 1004.18 1004.25 1004.22 1004.75 1005.43 1005.78 1005.99 1006.03 1006.24 1006.12 1006.28 1006.12 1005.90 1006.01 1006.30 1006.20 1006.22 1006.22 1006.16 1006.08 1006.09 1006.10 1006.08 1006.12 1006.18 1006.40 1006.73 1007.14 1007.60 1008.01
996.50 996.24 996.67 997.44 997.87 998.54 999.30 999.21 998.91 998.60 998.13 998.56 998.96 999.65 1000.53 1002.04 1002.65 1002.40 1002.46 1002.78 1003.00 1003.56 1003.92 1004.33 1004.79 1005.16 1005.45 1005.87 1006.15 1006.34 1006.68 1006.90 1007.11 1006.97 1006.65 1006.37 1006.39 1006.43 1006.34 1006.36 1006.28 1006.16 1006.08 1006.02 1006.04 1006.15 1006.24 1006.25 1006.41 1006.58 1006.93 1007.36 1007.77 1008.07
997.00 997.18 997.67 998.30 999.38 1000.12 1000.31 1000.19 1000.07 1000.15 1000.26 1000.58 1000.76 1000.91 1001.84 1002.73 1003.39 1003.80 1003.81 1004.18 1004.54 1004.87 1004.98 1005.29 1005.62 1005.98 1005.87 1006.27 1007.00 1007.20 1007.31 1007.55 1007.41 1006.98 1006.74 1006.62 1006.60 1006.47 1006.27 1006.14 1006.08 1006.13 1006.12 1006.12 1006.24 1006.41 1006.49 1006.55 1006.62 1006.79 1007.09 1007.41 1007.76 1008.09
997.62 997.90 998.21 999.03 1000.17 1000.92 1000.80 1000.71 1000.82 1001.01 1001.38 1001.55 1002.03 1002.33 1002.92 1003.25 1003.85 1004.56 1005.17 1005.23 1005.35 1005.44 1005.57 1005.58 1005.93 1006.29 1006.50 1006.86 1007.17 1007.21 1007.27 1007.10 1006.91 1006.79 1006.80 1006.74 1006.64 1006.56 1006.40 1006.27 1006.22 1006.12 1006.04 1006.14 1006.24 1006.33 1006.46 1006.55 1006.71 1006.91 1007.17 1007.56 1007.94 1008.33
998.45 998.58 998.87 999.44 1000.12 1000.52 1000.84 1000.56 1000.87 1001.45 1001.73 1002.11 1002.61 1002.91 1003.18 1003.37 1004.00 1004.93 1005.65 1005.82 1005.72 1005.47 1005.65 1006.20 1006.59 1006.63 1006.74 1006.78 1006.83 1006.82 1006.91 1006.88 1006.90 1006.92 1006.92 1006.88 1006.78 1006.58 1006.52 1006.37 1006.27 1006.18 1006.11 1006.17 1006.26 1006.36 1006.47 1006.63 1006.81 1007.03 1007.35 1007.80 1008.25 1008.79
Thickness
5316 5319 5321 5324 5328 5335 5343 5349 5357 5365 5370 5381 5392 5412 5418 5432 5438 5448 5470 5497 5513 5523 5531 5540 5555 5567 5569 5572 5572 5571 5564 5568 5577 5577 5580 5594 5607 5618 5617 5624 5610 5607 5598 5599 5602 5590 5594 5646 5642 5627 5637 5646 5645 5644
5312 5315 5318 5321 5324 5331 5339 5346 5351 5361 5369 5372 5385 5399 5414 5433 5441 5444 5467 5485 5498 5509 5501 5519 5530 5539 5551 5567 5570 5572 5579 5582 5587 5590 5600 5605 5606 5620 5620 5603 5625 5597 5616 5610 5612 5617 5638 5646 5642 5641 5641 5636 5636 5635
5308 5312 5315 5319 5321 5327 5336 5343 5349 5352 5363 5371 5377 5389 5402 5421 5427 5437 5466 5486 5489 5489 5499 5508 5519 5532 5546 5550 5556 5564 5564 5582 5593 5611 5602 5603 5600 5619 5605 5615 5620 5623 5626 5618 5618 5632 5636 5638 5640 5636 5632 5628 5629 5627
5304 5306 5310 5315 5319 5324 5333 5340 5349 5355 5363 5368 5375 5385 5392 5413 5427 5442 5461 5487 5493 5487 5491 5498 5513 5520 5533 5542 5547 5559 5568 5574 5584 5584 5576 5585 5593 5614 5608 5613 5612 5620 5622 5617 5616 5625 5625 5626 5627 5625 5624 5624 5622 5622
5300 5303 5307 5311 5316 5322 5329 5339 5348 5356 5361 5365 5374 5381 5389 5409 5424 5440 5460 5480 5495 5504 5484 5496 5507 5511 5523 5535 5548 5552 5559 5565 5567 5567 5569 5575 5592 5597 5601 5603 5606 5620 5617 5605 5607 5616 5614 5614 5618 5617 5612 5609 5612 5611
5299 5301 5305 5309 5313 5320 5326 5336 5344 5352 5358 5366 5375 5378 5390 5405 5425 5437 5462 5475 5482 5496 5491 5487 5480 5493 5514 5527 5539 5540 5550 5555 5562 5564 5566 5577 5583 5586 5583 5587 5606 5614 5620 5620 5612 5616 5612 5611 5611 5610 5605 5601 5600 5598
5297 5300 5303 5307 5312 5319 5325 5331 5341 5351 5359 5362 5367 5377 5385 5402 5415 5428 5442 5456 5477 5494 5481 5473 5475 5483 5498 5517 5520 5522 5531 5536 5537 5541 5549 5562 5568 5571 5575 5583 5599 5606 5608 5609 5613 5609 5600 5601 5595 5600 5596 5592 5589 5589
5295 5297 5301 5305 5309 5315 5322 5329 5338 5346 5357 5359 5365 5373 5383 5396 5413 5430 5447 5462 5475 5473 5476 5470 5463 5476 5488 5500 5501 5507 5518 5519 5521 5525 5538 5542 5548 5553 5561 5583 5589 5597 5599 5600 5601 5599 5593 5590 5589 5587 5585 5580 5576 5575
5294 5295 5298 5303 5307 5312 5318 5326 5336 5344 5350 5354 5364 5378 5384 5399 5413 5435 5441 5447 5463 5467 5462 5469 5476 5480 5479 5490 5495 5499 5508 5503 5512 5515 5526 5537 5537 5547 5571 5577 5584 5586 5584 5584 5588 5587 5585 5579 5576 5574 5570 5565 5561 5559
5297 5297 5299 5302 5307 5311 5316 5323 5330 5338 5344 5350 5356 5365 5376 5397 5412 5420 5424 5427 5446 5449 5471 5490 5496 5488 5500 5500 5486 5493 5505 5499 5504 5512 5524 5524 5546 5563 5570 5577 5579 5579 5582 5580 5570 5570 5572 5566 5561 5554 5550 5547 5543 5540
5301 5301 5301 5303 5307 5311 5315 5321 5327 5332 5337 5347 5352 5370 5379 5392 5402 5404 5418 5429 5428 5444 5472 5501 5503 5499 5503 5500 5488 5497 5489 5496 5499 5506 5510 5521 5549 5560 5566 5571 5569 5569 5569 5565 5563 5561 5559 5552 5544 5538 5536 5534 5531 5528
5305 5304 5304 5305 5307 5310 5314 5318 5325 5335 5343 5351 5361 5366 5370 5381 5392 5407 5419 5417 5436 5458 5484 5507 5502 5505 5495 5501 5485 5491 5489 5494 5498 5511 5505 5518 5564 5568 5566 5564 5564 5561 5555 5555 5553 5548 5543 5537 5534 5529 5525 5523 5521 5519
5310 5308 5307 5307 5308 5310 5314 5318 5327 5333 5339 5347 5358 5358 5365 5377 5398 5415 5421 5430 5456 5490 5503 5512 5499 5499 5489 5490 5481 5488 5476 5473 5491 5474 5492 5541 5559 5561 5560 5558 5552 5548 5543 5541 5538 5537 5532 5527 5522 5517 5515 5515 5513 5508
5325 5321 5316 5314 5313 5313 5315 5318 5324 5332 5341 5347 5360 5369 5372 5390 5406 5435 5461 5487 5510 5516 5516 5510 5501 5492 5490 5482 5481 5477 5480 5478 5479 5490 5523 5538 5547 5549 5547 5544 5538 5532 5529 5529 5528 5524 5519 5515 5512 5509 5502 5491 5476 5475
5331 5327 5322 5317 5313 5314 5315 5318 5325 5333 5340 5349 5361 5376 5388 5403 5427 5454 5480 5494 5503 5506 5503 5497 5493 5491 5476 5467 5483 5483 5476 5478 5501 5531 5538 5535 5540 5537 5534 5531 5528 5525 5522 5521 5518 5513 5500 5493 5492 5488 5482 5479 5480 5463
5330 5327 5324 5320 5315 5314 5316 5317 5321 5328 5340 5353 5361 5378 5398 5412 5438 5460 5484 5493 5495 5496 5497 5500 5485 5474 5472 5485 5486 5479 5489 5508 5529 5530 5534 5531 5532 5531 5527 5521 5520 5522 5518 5515 5512 5507 5500 5481 5474 5484 5482 5477 5458 5451
5328 5331 5331 5324 5319 5316 5315 5316 5319 5324 5341 5355 5374 5379 5393 5419 5439 5465 5486 5491 5494 5499 5493 5491 5480 5485 5496 5491 5498 5509 5516 5529 5529 5529 5530 5528 5526 5523 5521 5519 5515 5515 5512 5509 5504 5499 5493 5488 5482 5478 5473 5467 5459 5447
5331 5332 5332 5327 5322 5315 5317 5317 5327 5335 5351 5371 5385 5398 5400 5416 5438 5455 5474 5481 5489 5492 5491 5490 5498 5493 5493 5503 5516 5522 5523 5522 5522 5522 5523 5522 5522 5520 5515 5510 5505 5501 5497 5494 5491 5488 5481 5474 5470 5465 5461 5455 5446 5435
5342 5334 5329 5328 5328 5319 5316 5319 5339 5353 5365 5382 5390 5395 5413 5426 5441 5458 5467 5469 5470 5477 5476 5482 5490 5501 5509 5521 5521 5516 5513 5514 5515 5516 5515 5514 5512 5510 5508 5504 5501 5495 5490 5487 5481 5475 5471 5468 5462 5454 5446 5438 5432 5422
5363 5348 5332 5329 5329 5337 5330 5337 5353 5369 5369 5371 5393 5399 5405 5425 5442 5445 5447 5456 5460 5459 5462 5473 5490 5500 5502 5506 5509 5510 5510 5512 5509 5505 5503 5502 5500 5499 5496 5488 5483 5481 5478 5475 5469 5460 5457 5449 5442 5436 5429 5420 5415 5409
5365 5348 5334 5332 5337 5350 5350 5353 5358 5359 5363 5375 5383 5389 5393 5415 5429 5433 5435 5450 5447 5453 5458 5470 5476 5478 5487 5493 5499 5499 5498 5499 5496 5494 5491 5484 5481 5481 5479 5477 5472 5467 5463 5458 5451 5444 5431 5433 5427 5420 5413 5404 5399 5395
5347 5339 5339 5339 5353 5359 5357 5365 5368 5374 5381 5384 5388 5389 5400 5409 5409 5416 5434 5440 5444 5451 5456 5458 5463 5473 5476 5481 5483 5483 5483 5484 5482 5471 5467 5465 5469 5467 5464 5460 5455 5450 5444 5436 5429 5424 5420 5418 5415 5414 5406 5392 5389 5389
5341 5339 5346 5357 5352 5352 5346 5359 5367 5378 5376 5379 5383 5394 5403 5407 5408 5426 5421 5439 5440 5447 5455 5459 5465 5465 5464 5467 5469 5469 5468 5467 5467 5465 5460 5461 5459 5455 5448 5442 5436 5430 5423 5418 5413 5411 5409 5409 5407 5398 5396 5387 5383 5380
5364 5360 5354 5354 5359 5351 5355 5364 5374 5376 5375 5385 5395 5398 5402 5403 5412 5424 5432 5437 5440 5443 5446 5451 5454 5454 5455 5458 5456 5455 5455 5456 5456 5455 5451 5446 5441 5436 5430 5425 5419 5415 5410 5407 5404 5405 5405 5401 5397 5395 5387 5381 5379 5376
5364 5349 5357 5357 5364 5365 5360 5363 5375 5386 5391 5400 5397 5399 5402 5417 5422 5423 5435 5441 5439 5438 5441 5446 5448 5450 5451 5451 5452 5452 5452 5448 5443 5438 5433 5429 5422 5418 5416 5414 5412 5410 5408 5403 5399 5397 5394 5389 5386 5381 5379 5376 5374 5372
5353 5351 5360 5363 5367 5372 5368 5368 5374 5386 5391 5395 5391 5394 5408 5417 5414 5416 5432 5439 5440 5439 5437 5439 5442 5443 5444 5446 5445 5442 5437 5434 5427 5421 5420 5419 5417 5414 5410 5406 5406 5407 5407 5405 5395 5391 5389 5387 5383 5378 5376 5373 5371 5368
5360 5361 5377 5397 5401 5399 5384 5385 5394 5392 5388 5389 5387 5396 5403 5407 5409 5431 5432 5435 5434 5432 5433 5433 5436 5437 5436 5431 5427 5418 5415 5412 5410 5407 5406 5408 5408 5408 5407 5401 5400 5403 5401 5396 5393 5390 5386 5383 5381 5378 5375 5372 5370 5366
5380 5382 5385 5391 5394 5397 5392 5390 5386 5387 5403 5405 5406 5403 5410 5420 5430 5428 5421 5419 5418 5417 5414 5412 5412 5414 5414 5411 5407 5402 5396 5393 5391 5394 5396 5397 5398 5398 5396 5395 5393 5387 5385 5384 5383 5382 5381 5380 5378 5376 5373 5371 5367 5363
5372 5379 5378 5374 5380 5390 5386 5390 5404 5416 5417 5415 5402 5416 5415 5412 5407 5409 5408 5410 5412 5413 5411 5405 5395 5395 5398 5394 5386 5384 5381 5382 5381 5383 5382 5386 5389 5388 5382 5381 5379 5377 5378 5379 5377 5377 5377 5376 5375 5373 5370 5367 5362 5358
5367 5385 5377 5372 5381 5384 5376 5379 5392 5395 5414 5414 5414 5413 5408 5389 5385 5394 5397 5396 5397 5391 5388 5386 5381 5379 5378 5376 5375 5375 5369 5367 5366 5369 5375 5381 5378 5376 5375 5373 5371 5372 5372 5373 5373 5371 5369 5369 5367 5366 5363 5359 5355 5352
5371 5373 5371 5372 5361 5357 5359 5364 5370 5373 5376 5376 5378 5387 5388 5378 5374 5374 5378 5376 5375 5373 5374 5372 5369 5366 5369 5367 5361 5360 5361 5356 5358 5363 5366 5368 5368 5369 5369 5369 5368 5367 5367 5367 5365 5363 5361 5360 5359 5357 5354 5351 5347 5345
5361 5361 5366 5360 5351 5347 5355 5364 5364 5365 5365 5368 5366 5366 5365 5371 5375 5366 5360 5362 5363 5364 5363 5365 5364 5361 5359 5356 5353 5353 5352 5355 5357 5358 5359 5360 5361 5362 5362 5362 5361 5362 5361 5360 5358 5356 5354 5353 5350 5348 5345 5342 5338 5334
5348 5352 5354 5355 5353 5354 5352 5366 5366 5357 5360 5363 5361 5363 5368 5376 5376 5357 5348 5349 5353 5358 5358 5353 5350 5350 5349 5349 5349 5349 5347 5348 5348 5349 5350 5351 5352 5354 5354 5354 5354 5354 5354 5353 5351 5349 5348 5345 5343 5340 5337 5332 5328 5323